TimeCST,TemperatureF,Dew PointF,Humidity,Sea Level PressureIn,VisibilityMPH,Wind Direction,Wind SpeedMPH,Gust SpeedMPH,PrecipitationIn,Events,Conditions,WindDirDegrees,DateUTC
12:53 AM,-4.0,-8.0,83,30.26,10.0,Calm,Calm,-,N/A,,Clear,0,2013-02-16 06:53:00
1:53 AM,-8.0,-11.0,86,30.25,10.0,Calm,Calm,-,N/A,,Clear,0,2013-02-16 07:53:00
2:53 AM,-11.9,-16.1,82,30.25,10.0,Calm,Calm,-,N/A,,Clear,0,2013-02-16 08:53:00
3:53 AM,-11.9,-17.0,78,30.24,10.0,Calm,Calm,-,N/A,,Clear,0,2013-02-16 09:53:00
4:53 AM,-15.0,-18.9,82,30.23,10.0,ESE,3.5,-,N/A,,Clear,110,2013-02-16 10:53:00
5:53 AM,-17.0,-20.9,82,30.23,10.0,Calm,Calm,-,N/A,,Clear,0,2013-02-16 11:53:00
6:26 AM,-16.6,-22.0,76,30.12,10.0,Calm,Calm,-,N/A,,Partly Cloudy,0,2013-02-16 12:26:00
6:40 AM,-18.4,-23.8,76,30.12,10.0,ESE,3.5,-,N/A,,Mostly Cloudy,110,2013-02-16 12:40:00
6:53 AM,-17.0,-22.0,78,30.23,9.0,Calm,Calm,-,N/A,,Overcast,0,2013-02-16 12:53:00
7:17 AM,-18.4,-23.8,76,30.11,10.0,East,4.6,-,N/A,,Scattered Clouds,100,2013-02-16 13:17:00
7:37 AM,-20.2,-25.6,76,30.11,10.0,ESE,4.6,-,N/A,,Mostly Cloudy,110,2013-02-16 13:37:00
7:53 AM,-18.0,-22.0,82,30.22,10.0,Calm,Calm,-,N/A,,Scattered Clouds,0,2013-02-16 13:53:00
8:53 AM,-15.0,-18.0,86,30.22,10.0,Calm,Calm,-,N/A,,Clear,0,2013-02-16 14:53:00
9:53 AM,-4.0,-7.1,87,30.21,10.0,SE,3.5,-,N/A,,Clear,130,2013-02-16 15:53:00
10:53 AM,3.0,-2.0,80,30.19,10.0,ESE,4.6,-,N/A,,Clear,110,2013-02-16 16:53:00
11:53 AM,10.0,1.0,67,30.20,10.0,South,5.8,-,N/A,,Clear,170,2013-02-16 17:53:00
12:53 PM,10.9,1.0,64,30.18,10.0,ESE,6.9,-,N/A,,Clear,120,2013-02-16 18:53:00
1:53 PM,15.1,1.9,56,30.17,10.0,SSE,4.6,-,N/A,,Clear,150,2013-02-16 19:53:00
2:53 PM,16.0,1.9,54,30.16,10.0,ESE,8.1,-,N/A,,Clear,110,2013-02-16 20:53:00
3:53 PM,18.0,1.0,48,30.13,10.0,South,8.1,-,N/A,,Clear,180,2013-02-16 21:53:00
4:53 PM,15.1,1.0,54,30.14,10.0,South,5.8,-,N/A,,Clear,190,2013-02-16 22:53:00
5:53 PM,14.0,1.0,56,30.15,10.0,SE,3.5,-,N/A,,Clear,140,2013-02-16 23:53:00
6:53 PM,10.9,-0.0,61,30.14,10.0,SE,3.5,-,N/A,,Clear,130,2013-02-17 00:53:00
7:53 PM,9.0,-0.9,64,30.13,10.0,SE,3.5,-,N/A,,Clear,140,2013-02-17 01:53:00
8:53 PM,7.0,-0.9,70,30.11,10.0,SSE,5.8,-,N/A,,Clear,150,2013-02-17 02:53:00
9:53 PM,6.1,-0.9,73,30.08,10.0,SE,5.8,-,N/A,,Clear,140,2013-02-17 03:53:00
10:53 PM,5.0,-2.0,73,30.06,10.0,SE,4.6,-,N/A,,Mostly Cloudy,140,2013-02-17 04:53:00
11:53 PM,3.9,-2.0,76,30.03,10.0,SSE,3.5,-,N/A,,Partly Cloudy,150,2013-02-17 05:53:00